McCall, ID

7:18 AM MST on January 18, 2017 (GMT -0700)
McCall

Weather History for KMYL - May, 2014

Change the Weather History Date:

Monday, May 5, 2014

  Actual Average Record
Temperature  
Mean Temperature 41 °F 43 °F  
Max Temperature 46 °F 56 °F 82 °F (1966)
Min Temperature 36 °F 30 °F 20 °F (1977)
Degree Days  
Heating Degree Days 24 22  
Month to date heating degree days 81 113  
Since 1 July heating degree days 7875 8748  
Cooling Degree Days 0 0  
Month to date cooling degree days 0 0  
Year to date cooling degree days 0 0  
Moisture  
Dew Point 35 °F    
Average Humidity 81    
Maximum Humidity 85    
Minimum Humidity 76    
Precipitation  
Precipitation 0.27 in 0.06 in 0.52 in (1964)
Month to date precipitation 0.27 0.33  
Year to date precipitation 13.56 7.92  
Sea Level Pressure  
Sea Level Pressure 29.88 in    
Wind  
Wind Speed 6 mph (NNW)    
Max Wind Speed 17 mph    
Max Gust Speed 22 mph    
Visibility 10 miles    
Events Rain    
T = Trace of Precipitation, MM = Missing Value Source: NWS Daily Summary

Daily Weather History Graph

Daily Weather History Graph

Search for Another Location

Airport or City:

Trip Planner

Search our weather history database for the weather conditions in past years. The results will help you decide how hot, cold, wet, or windy it might be!

Date:

Astronomy

May. 05, 2014 Rise Set
Actual Time 6:28 AM MDT 8:54 PM MDT
Civil Twilight 5:55 AM MDT 9:27 PM MDT
Nautical Twilight 5:14 AM MDT 10:08 PM MDT
Astronomical Twilight 4:28 AM MDT 10:55 PM MDT
Moon 11:53 AM MDT (5/5) 1:41 AM MDT (5/5)
Length of Visible Light 15h 32m
Length of Day
14h 26m
Waxing Crescent, 37% of the Moon is Illuminated
May 5
Waxing Crescent
May 6
First Quarter
May 14
Full
May 21
Last Quarter
May 28
New

Hourly Weather History & Observations

Time (MDT) Temp. Windchill Dew Point Humidity Pressure Visibility Wind Dir Wind Speed Gust Speed Precip Events Conditions
12:51 AM 41.0 °F 37.1 °F 35.1 °F 79% 29.82 in 10.0 mi WNW 5.8 mph - N/A   Overcast
1:51 AM 39.9 °F 37.8 °F 35.1 °F 83% 29.82 in 10.0 mi East 3.5 mph - 0.00 in   Mostly Cloudy
3:51 AM 39.0 °F 34.8 °F 35.1 °F 86% 29.84 in 10.0 mi North 5.8 mph - N/A   Overcast
4:51 AM 39.0 °F 34.8 °F 36.0 °F 89% 29.85 in 10.0 mi NW 5.8 mph - 0.02 in Rain Light Rain
5:51 AM 39.0 °F - 36.0 °F 89% 29.85 in 10.0 mi Calm Calm - 0.01 in Rain Light Rain
6:51 AM 37.9 °F 35.5 °F 36.0 °F 93% 29.85 in 10.0 mi West 3.5 mph - 0.01 in   Overcast
7:51 AM 39.9 °F 37.8 °F 36.0 °F 86% 29.85 in 10.0 mi ENE 3.5 mph - N/A   Overcast
8:20 AM 41.0 °F - 37.0 °F 86% 29.89 in 10.0 mi Calm Calm - N/A   Overcast
8:51 AM 42.1 °F 40.2 °F 37.0 °F 82% 29.86 in 10.0 mi NNW 3.5 mph - N/A   Overcast
9:01 AM 41.0 °F 38.0 °F 37.0 °F 86% 29.88 in 10.0 mi NW 4.6 mph - N/A   Overcast
9:44 AM 43.0 °F - 37.0 °F 80% 29.88 in 10.0 mi Calm Calm - N/A   Overcast
9:51 AM 43.0 °F - 36.0 °F 76% 29.86 in 10.0 mi Calm Calm - N/A   Overcast
10:11 AM 43.0 °F - 36.0 °F 76% 29.88 in 10.0 mi Calm Calm - N/A   Overcast
10:51 AM 43.0 °F 41.3 °F 37.0 °F 80% 29.87 in 10.0 mi West 3.5 mph - 0.00 in Rain Light Rain
11:07 AM 45.0 °F 43.5 °F 37.9 °F 76% 29.89 in 10.0 mi Variable 3.5 mph - 0.00 in   Overcast
11:16 AM 45.0 °F 41.8 °F 37.9 °F 76% 29.89 in 10.0 mi NNW 5.8 mph - 0.00 in   Overcast
11:28 AM 44.1 °F 42.5 °F 36.0 °F 73% 29.89 in 10.0 mi WNW 3.5 mph - 0.00 in   Overcast
11:51 AM 46.0 °F 44.8 °F 37.0 °F 71% 29.87 in 10.0 mi Variable 3.5 mph - 0.00 in   Overcast
12:06 PM 44.1 °F 39.0 °F 33.1 °F 65% 29.88 in 10.0 mi South 9.2 mph - N/A   Overcast
12:17 PM 45.0 °F 40.1 °F 32.0 °F 60% 29.88 in 10.0 mi South 9.2 mph - 0.00 in   Overcast
12:40 PM 41.0 °F 37.1 °F 35.1 °F 79% 29.89 in 10.0 mi Variable 5.8 mph - 0.00 in   Overcast
12:51 PM 41.0 °F 34.3 °F 36.0 °F 82% 29.90 in 10.0 mi NW 11.5 mph - 0.00 in Rain Light Rain
1:11 PM 41.0 °F 37.1 °F 35.1 °F 79% 29.90 in 10.0 mi North 5.8 mph - 0.00 in Rain Light Rain
1:48 PM 41.0 °F 36.4 °F 35.6 °F 81% 29.89 in 9.0 mi NNE 6.9 mph - 0.01 in Rain Light Rain
1:51 PM 41.0 °F 36.4 °F 36.0 °F 82% 29.90 in 10.0 mi NNE 6.9 mph - 0.01 in Rain Light Rain
2:51 PM 44.1 °F 39.0 °F 37.0 °F 76% 29.88 in 10.0 mi NE 9.2 mph - 0.00 in   Overcast
3:18 PM 37.9 °F 30.5 °F 33.1 °F 83% 29.89 in 7.0 mi NW 11.5 mph - 0.04 in Rain Rain
3:51 PM 37.9 °F 32.7 °F 34.0 °F 86% 29.91 in 3.0 mi North 6.9 mph - 0.11 in Rain Rain
4:25 PM 39.9 °F 33.4 °F 35.1 °F 83% 29.88 in 10.0 mi NE 10.4 mph - 0.03 in   Overcast
4:51 PM 41.0 °F 36.4 °F 36.0 °F 82% 29.88 in 10.0 mi NNE 6.9 mph - 0.03 in Rain Light Rain
5:51 PM 41.0 °F 39.0 °F 36.0 °F 82% 29.89 in 7.0 mi WNW 3.5 mph - 0.00 in Rain Light Rain
6:51 PM 41.0 °F 39.0 °F 36.0 °F 82% 29.89 in 10.0 mi North 3.5 mph - 0.05 in Rain Light Rain
7:39 PM 41.0 °F - 36.0 °F 82% 29.88 in 10.0 mi Calm Calm - 0.00 in   Overcast
7:51 PM 41.0 °F 38.0 °F 36.0 °F 82% 29.89 in 10.0 mi NW 4.6 mph - 0.00 in   Overcast
8:51 PM 37.9 °F 30.5 °F 33.1 °F 83% 29.91 in 8.0 mi NNW 11.5 mph - 0.01 in Rain Light Rain
9:23 PM 37.9 °F 31.5 °F 33.1 °F 83% 29.89 in 10.0 mi NNW 9.2 mph - 0.02 in   Overcast
9:51 PM 37.9 °F 31.5 °F 33.1 °F 83% 29.90 in 10.0 mi NNW 9.2 mph - 0.02 in   Overcast
10:51 PM 37.0 °F 32.4 °F 33.1 °F 86% 29.90 in 10.0 mi NNE 5.8 mph - N/A   Overcast
11:51 PM 36.0 °F 31.1 °F 30.9 °F 82% 29.87 in 10.0 mi North 5.8 mph - N/A   Mostly Cloudy